Hourly Data Report for March 18, 2019

KUGAARUK CLIMATE
NUNAVUT
Current Station Operator: ECCC - MSC

68°32'15.060" N
89°47'47.020" W
15.80 m
2303094
71407
NBB

Download Data

Hourly Data (March 2019)
Hourly Data Report for March 18, 2019
TIME
LST
Temp Definition
°C
Dew Point Definition
°C
Rel Hum Definition
%
Precip. Amount Definition
mm

Wind Dir Definition
10's deg

Wind Spd Definition
km/h
Visibility Definition
km
Stn Press Definition
kPa
Hmdx Definition


Wind Chill Definition


Weather Definition


00:00 -31.9 -35.1 73 0.0 26 14   102.01   -43 LegendNANA
01:00 -31.2 -34.4 73 0.0 26 17   101.98   -44 LegendNANA
02:00 -32.9 -36.2 72 0.0 26 16   101.96   -45 LegendNANA
03:00 -33.0 -36.3 72 0.0 25 12   101.96   -44 LegendNANA
04:00 -33.5 -36.8 72 0.0 26 11   101.94   -44 LegendNANA
05:00 -32.9 -36.2 73 0.0 26 17   101.87   -46 LegendNANA
06:00 -31.2 -34.4 73 0.0 27 15   101.80   -43 LegendNANA
07:00 -30.6 -34.1 71 0.0 27 14   101.71   -42 LegendNANA
08:00 -29.6 -33.2 71 0.0 26 11   101.64   -39 LegendNANA
09:00 -28.4 -31.8 72 0.0 25 14   101.58   -39 LegendNANA
10:00 -27.7 -31.2 72 0.0 25 18   101.52   -40 LegendNANA
11:00 -27.0 -30.4 73 0.0 25 17   101.48   -38 LegendNANA
12:00 -25.9 -29.3 73 0.0 24 20   101.42   -38 LegendNANA
13:00 -25.3 -28.6 74 0.0 25 15   101.33   -36 LegendNANA
14:00 -24.9 -28.2 74 0.0 26 17   101.27   -36 LegendNANA
15:00 -24.7 -28.4 72 0.0 25 13   101.23   -34 LegendNANA
16:00 -25.5 -29.5 70 0.0 25 10   101.17   -34 LegendNANA
17:00 -27.1 -30.6 72 0.0 27 12   101.12   -37 LegendNANA
18:00 -28.9 -32.0 74 0.0 8 3   101.11   -32 LegendNANA
19:00 -33.7 -36.6 75 0.0 4 7   101.14   -42 LegendNANA
20:00 -34.1 -37.1 74 0.0 7 13   101.13   -46 LegendNANA
21:00 -34.6 -37.6 74 0.0 10 3   101.14   -38 LegendNANA
22:00 -35.4 -38.8 71 0.0 5 4   101.15   -40 LegendNANA
23:00                      

Notes on Data Quality.

Legend

  • E = Estimated
  • M = Missing
  • NA = Not Available*
  • [empty] = Indicates an unobserved value
Date modified: